Location: Balmoral
(33.0667°S, 151.5833°E)
Time: 01:33:51
(UTC+00:00)

CZ-4B DEB - Pass Details

Date: 18 September 2020
Orbit: 841 x 861 km, 99.1° (Epoch: 21 October)

Event Time Altitude Azimuth Distance (km) Brightness Sun altitude
Rises 19:05:55 0° 6° (N) 3,411 7.4 -9.5°
Reaches altitude 10° 19:08:18 10° 3° (N) 2,480 6.6 -9.0°
Maximum altitude 19:13:45 63° 282° (WNW) 950 4.2 -7.9°
Drops below altitude 10° 19:19:15 10° 201° (SSW) 2,497 6.5 -6.7°
Sets 19:21:40 0° 197° (SSW) 3,437 7.2 -6.2°
